Weather History for Istanbul, Turkey

Change the Weather History Date:

Monday, September 16, 2013

  Actual Average Record
Temperature  
Mean Temperature 72 °F -  
Max Temperature 80 °F 70 °F 89 °F (2012)
Min Temperature 63 °F 58 °F 53 °F (1996)
Cooling Degree Days 6    
Growing Degree Days 22 (Base 50)    
Moisture  
Dew Point 51 °F    
Average Humidity 46    
Maximum Humidity 68    
Minimum Humidity 17    
Precipitation  
Precipitation 0.00 in - - ()
Sea Level Pressure  
Sea Level Pressure 29.79 in    
Wind  
Wind Speed 5 mph ()    
Max Wind Speed 10 mph    
Max Gust Speed -    
Visibility 6.2 miles    
Events      
Averages and records for this station are not official NWS values.
T = Trace of Precipitation, MM = Missing Value Source: Averaged Metar Reports

Daily Weather History Graph

Daily Weather History Graph

Search for Another Location

Airport:

Trip Planner

Search our weather history database for the weather conditions in past years. The results will help you decide how hot, cold, wet, or windy it might be!

Date:

Astronomy

Sep. 16, 2013 Rise Set
Actual Time 6:46 AM EEST 7:12 PM EEST
Civil Twilight 6:18 AM EEST 7:39 PM EEST
Nautical Twilight 5:46 AM EEST 8:12 PM EEST
Astronomical Twilight 5:12 AM EEST 8:45 PM EEST
Moon 5:09 PM EEST (9/16) 3:08 AM EEST (9/16)
Length of Visible Light 13h 21m
Length of Day
12h 26m
Waxing Gibbous, 88% of the Moon is Illuminated
Sep 16
Waxing Gibbous
Sep 19
Full
Sep 27
Last Quarter
Oct 5
New
Oct 12
First Quarter

Hourly Weather History & Observations

Time (EEST) Temp. Dew Point Humidity Pressure Visibility Wind Dir Wind Speed Gust Speed Precip Events Conditions
12:20 AM 71.6 °F 59.0 °F 64% 29.89 in - West 4.6 mph - N/A   Clear
12:50 AM 71.6 °F 53.6 °F 53% 29.89 in - West 5.8 mph - N/A   Clear
1:20 AM 71.6 °F 51.8 °F 50% 29.89 in - WSW 3.5 mph - N/A   Clear
1:50 AM 69.8 °F 53.6 °F 56% 29.89 in - West 4.6 mph - N/A   Clear
2:20 AM 69.8 °F 55.4 °F 60% 29.89 in - West 4.6 mph - N/A   Clear
2:50 AM 69.8 °F 53.6 °F 56% 29.86 in - West 4.6 mph - N/A   Clear
3:20 AM 68.0 °F 51.8 °F 56% 29.86 in - West 4.6 mph - N/A   Clear
3:50 AM 68.0 °F 51.8 °F 56% 29.86 in - West 4.6 mph - N/A   Clear
4:20 AM 64.4 °F 50.0 °F 59% 29.83 in - West 3.5 mph - N/A   Clear
4:50 AM 66.2 °F 51.8 °F 60% 29.83 in - Variable 1.2 mph - N/A   Clear
5:20 AM 66.2 °F 51.8 °F 60% 29.83 in - Calm Calm - N/A   Clear
5:50 AM 66.2 °F 51.8 °F 60% 29.83 in - WSW 2.3 mph - N/A   Clear
6:20 AM 66.2 °F 55.4 °F 68% 29.86 in - Variable 2.3 mph - N/A   Clear
6:50 AM 69.8 °F 57.2 °F 64% 29.86 in - SSW 8.1 mph - N/A   Clear
7:20 AM 71.6 °F 57.2 °F 60% 29.83 in - SW 6.9 mph - N/A   Clear
7:50 AM 71.6 °F 57.2 °F 60% 29.83 in - SSW 9.2 mph - N/A   Clear
8:20 AM 71.6 °F 55.4 °F 57% 29.83 in - SW 9.2 mph - N/A   Clear
8:50 AM 73.4 °F 57.2 °F 57% 29.83 in - SSW 9.2 mph - N/A   Clear
9:00 AM 74 °F 56 °F 43% 29.84 in 6 mi SSW 9.2 mph - -  
9:20 AM 73.4 °F 55.4 °F 53% 29.83 in - South 10.4 mph - N/A   Clear
9:50 AM 75.2 °F 53.6 °F 47% 29.83 in - SSW 9.2 mph - N/A   Clear
10:20 AM 75.2 °F 53.6 °F 47% 29.83 in - South 9.2 mph - N/A   Clear
10:50 AM 75.2 °F 55.4 °F 50% 29.83 in - SSW 9.2 mph - N/A   Clear
11:20 AM 75.2 °F 53.6 °F 47% 29.83 in - SSW 6.9 mph - N/A   Clear
11:50 AM 77.0 °F 53.6 °F 44% 29.83 in 6.2 mi SW 8.1 mph - N/A   Scattered Clouds
12:20 PM 75.2 °F 51.8 °F 44% 29.83 in 6.2 mi SW 8.1 mph - N/A   Scattered Clouds
12:50 PM 75.2 °F 48.2 °F 38% 29.83 in 6.2 mi WSW 6.9 mph - N/A   Mostly Cloudy
1:20 PM 75.2 °F 48.2 °F 38% 29.80 in 6.2 mi SW 5.8 mph - N/A   Mostly Cloudy
1:50 PM 77.0 °F 44.6 °F 32% 29.80 in 6.2 mi WSW 6.9 mph - N/A   Mostly Cloudy
2:20 PM 77.0 °F 46.4 °F 34% 29.77 in - WSW 4.6 mph - N/A   Clear
2:50 PM 78.8 °F 42.8 °F 28% 29.77 in - SSW 5.8 mph - N/A   Clear
3:00 PM 78 °F 42 °F 17% 29.78 in 6 mi SSW 5.8 mph - -   Mostly Cloudy
3:20 PM 77.0 °F 42.8 °F 29% 29.77 in - SW 5.8 mph - N/A   Clear
3:50 PM 78.8 °F 42.8 °F 28% 29.74 in - Variable 3.5 mph - N/A   Clear
4:20 PM 78.8 °F 39.2 °F 24% 29.74 in - WSW 4.6 mph - N/A   Clear
4:50 PM 78.8 °F 37.4 °F 23% 29.74 in - WSW 3.5 mph - N/A   Clear
5:20 PM 80.6 °F 37.4 °F 21% 29.71 in 6.2 mi Variable 2.3 mph - N/A   Mostly Cloudy
5:50 PM 78.8 °F 39.2 °F 24% 29.71 in - Variable 3.5 mph - N/A   Clear
6:20 PM 78.8 °F 39.2 °F 24% 29.68 in 6.2 mi Calm Calm - N/A   Mostly Cloudy
6:50 PM 78.8 °F 51.8 °F 39% 29.71 in 6.2 mi ENE 8.1 mph - N/A   Mostly Cloudy
7:20 PM 77.0 °F 55.4 °F 47% 29.71 in 6.2 mi NE 8.1 mph - N/A   Mostly Cloudy
7:50 PM 77.0 °F 53.6 °F 44% 29.71 in 6.2 mi Variable 8.1 mph - N/A   Mostly Cloudy
8:20 PM 78.8 °F 53.6 °F 42% 29.71 in 6.2 mi East 9.2 mph - N/A   Scattered Clouds
8:50 PM 77.0 °F 53.6 °F 44% 29.71 in 6.2 mi East 8.1 mph - N/A   Mostly Cloudy
9:20 PM 75.2 °F 53.6 °F 47% 29.71 in 6.2 mi East 8.1 mph - N/A   Mostly Cloudy
9:50 PM 75.2 °F 53.6 °F 47% 29.71 in 6.2 mi East 6.9 mph - N/A   Mostly Cloudy
10:20 PM 73.4 °F 53.6 °F 50% 29.68 in 6.2 mi ENE 8.1 mph - N/A   Mostly Cloudy
10:50 PM 73.4 °F 53.6 °F 50% 29.68 in 6.2 mi ENE 5.8 mph - N/A   Mostly Cloudy
11:20 PM 75.2 °F 51.8 °F 44% 29.68 in 6.2 mi NE 5.8 mph - N/A   Mostly Cloudy
11:50 PM 75.2 °F 50.0 °F 41% 29.68 in 6.2 mi ENE 5.8 mph - N/A   Scattered Clouds